Time,TemperatureF,DewpointF,PressureIn,WindDirection,WindDirectionDegrees,WindSpeedMPH,WindSpeedGustMPH,Humidity,HourlyPrecipIn,Conditions,Clouds,dailyrainin,SoftwareType,DateUTC
2013-07-13 00:01:00,70.9,65.8,30.09,ESE,105,0.0,6.0,84,0.00,,,0.00,meteohub,2013-07-13 04:01:00,
2013-07-13 00:02:00,70.9,65.8,30.09,ESE,105,4.0,6.0,84,0.00,,,0.00,meteohub,2013-07-13 04:02:00,
2013-07-13 00:03:00,70.9,65.8,30.09,ESE,102,5.0,6.0,84,0.00,,,0.00,meteohub,2013-07-13 04:03:00,
2013-07-13 00:08:00,70.5,65.8,30.09,ESE,113,4.0,6.0,85,0.00,,,0.00,meteohub,2013-07-13 04:08:00,
2013-07-13 00:13:00,70.3,65.3,30.09,ESE,118,5.0,5.0,84,0.00,,,0.00,meteohub,2013-07-13 04:13:00,
2013-07-13 00:18:00,70.2,65.1,30.09,ESE,117,4.0,5.0,84,0.00,,,0.00,meteohub,2013-07-13 04:18:00,
2013-07-13 00:23:00,70.0,65.3,30.09,ESE,115,4.0,6.0,85,0.00,,,0.00,meteohub,2013-07-13 04:23:00,
2013-07-13 00:28:00,69.8,65.5,30.09,ESE,113,1.0,6.0,86,0.00,,,0.00,meteohub,2013-07-13 04:28:00,
2013-07-13 00:33:00,69.6,64.9,30.09,ESE,114,4.0,6.0,85,0.00,,,0.00,meteohub,2013-07-13 04:33:00,
2013-07-13 00:38:00,69.6,65.3,30.08,SE,129,4.0,6.0,86,0.00,,,0.00,meteohub,2013-07-13 04:38:00,
2013-07-13 00:43:00,69.4,64.8,30.08,ESE,121,3.0,6.0,85,0.00,,,0.00,meteohub,2013-07-13 04:43:00,
2013-07-13 00:48:00,69.6,64.9,30.08,ESE,105,4.0,7.0,85,0.00,,,0.00,meteohub,2013-07-13 04:48:00,
2013-07-13 00:53:00,70.0,65.7,30.09,East,101,4.0,7.0,86,0.00,,,0.00,meteohub,2013-07-13 04:53:00,
2013-07-13 00:58:00,70.0,65.3,30.09,East,99,0.0,7.0,85,0.00,,,0.00,meteohub,2013-07-13 04:58:00,
2013-07-13 01:03:00,69.6,65.3,30.09,East,101,0.0,7.0,86,0.00,,,0.00,meteohub,2013-07-13 05:03:00,
2013-07-13 01:08:00,69.6,64.9,30.09,East,101,0.0,5.0,85,0.00,,,0.00,meteohub,2013-07-13 05:08:00,
2013-07-13 01:14:00,69.6,64.6,30.09,East,101,0.0,5.0,84,0.00,,,0.00,meteohub,2013-07-13 05:14:00,
2013-07-13 01:19:00,69.6,64.6,30.09,East,101,6.0,6.0,84,0.00,,,0.00,meteohub,2013-07-13 05:19:00,
2013-07-13 01:24:00,70.0,64.9,30.09,East,101,5.0,5.0,84,0.00,,,0.00,meteohub,2013-07-13 05:24:00,
2013-07-13 01:29:00,70.0,64.6,30.09,East,92,6.0,6.0,83,0.00,,,0.00,meteohub,2013-07-13 05:29:00,
2013-07-13 01:34:00,69.8,64.4,30.09,East,92,4.0,6.0,83,0.00,,,0.00,meteohub,2013-07-13 05:34:00,
2013-07-13 01:39:00,69.8,64.4,30.09,North,0,6.0,6.0,83,0.00,,,0.00,meteohub,2013-07-13 05:39:00,
2013-07-13 01:44:00,70.0,64.2,30.09,East,90,6.0,9.0,82,0.00,,,0.00,meteohub,2013-07-13 05:44:00,
2013-07-13 01:49:00,69.6,64.2,30.09,ESE,104,5.0,10.0,83,0.00,,,0.00,meteohub,2013-07-13 05:49:00,
2013-07-13 01:54:00,69.6,63.9,30.09,East,101,4.0,10.0,82,0.00,,,0.00,meteohub,2013-07-13 05:54:00,
2013-07-13 01:59:00,69.4,63.7,30.08,ESE,108,0.0,10.0,82,0.00,,,0.00,meteohub,2013-07-13 05:59:00,
2013-07-13 02:04:00,69.4,64.0,30.08,ESE,108,0.0,7.0,83,0.00,,,0.00,meteohub,2013-07-13 06:04:00,
2013-07-13 02:09:00,69.3,63.5,30.08,ESE,113,3.0,7.0,82,0.00,,,0.00,meteohub,2013-07-13 06:09:00,
2013-07-13 02:14:00,69.4,64.0,30.07,ESE,113,4.0,5.0,83,0.00,,,0.00,meteohub,2013-07-13 06:14:00,
2013-07-13 02:19:00,69.3,63.5,30.07,ESE,117,0.0,5.0,82,0.00,,,0.00,meteohub,2013-07-13 06:19:00,
2013-07-13 02:24:00,69.3,63.1,30.08,ESE,116,0.0,5.0,81,0.00,,,0.00,meteohub,2013-07-13 06:24:00,
2013-07-13 02:29:00,69.1,63.3,30.08,ESE,117,0.0,5.0,82,0.00,,,0.00,meteohub,2013-07-13 06:29:00,
2013-07-13 02:34:00,68.7,63.0,30.07,ESE,117,0.0,5.0,82,0.00,,,0.00,meteohub,2013-07-13 06:34:00,
2013-07-13 02:39:00,68.4,63.3,30.08,ESE,118,0.0,4.0,84,0.00,,,0.00,meteohub,2013-07-13 06:39:00,
2013-07-13 02:44:00,68.0,62.6,30.08,ESE,118,0.0,3.0,83,0.00,,,0.00,meteohub,2013-07-13 06:44:00,
2013-07-13 02:50:00,67.8,63.1,30.08,ESE,118,0.0,3.0,85,0.00,,,0.00,meteohub,2013-07-13 06:50:00,
2013-07-13 02:55:00,67.8,63.9,30.08,ESE,118,0.0,0.0,87,0.00,,,0.00,meteohub,2013-07-13 06:55:00,
2013-07-13 03:00:00,67.6,63.7,30.08,ESE,118,0.0,0.0,87,0.00,,,0.00,meteohub,2013-07-13 07:00:00,
2013-07-13 03:05:00,67.6,64.0,30.08,ESE,118,0.0,0.0,88,0.00,,,0.00,meteohub,2013-07-13 07:05:00,
2013-07-13 03:10:00,67.6,63.7,30.08,ESE,119,2.0,0.0,87,0.00,,,0.00,meteohub,2013-07-13 07:10:00,
2013-07-13 03:15:00,67.6,63.7,30.08,ESE,118,0.0,3.0,87,0.00,,,0.00,meteohub,2013-07-13 07:15:00,
2013-07-13 03:20:00,67.8,64.2,30.08,ESE,115,4.0,4.0,88,0.00,,,0.00,meteohub,2013-07-13 07:20:00,
2013-07-13 03:25:00,68.2,64.2,30.08,ESE,103,5.0,6.0,87,0.00,,,0.00,meteohub,2013-07-13 07:25:00,
2013-07-13 03:30:00,68.5,63.5,30.08,ESE,102,5.0,6.0,84,0.00,,,0.00,meteohub,2013-07-13 07:30:00,
2013-07-13 03:35:00,68.5,62.8,30.08,ESE,110,5.0,6.0,82,0.00,,,0.00,meteohub,2013-07-13 07:35:00,
2013-07-13 03:40:00,68.5,62.8,30.07,ESE,110,5.0,6.0,82,0.00,,,0.00,meteohub,2013-07-13 07:40:00,
2013-07-13 03:45:00,68.5,62.4,30.08,ESE,115,4.0,6.0,81,0.00,,,0.00,meteohub,2013-07-13 07:45:00,
2013-07-13 03:50:00,68.4,62.6,30.08,ESE,115,4.0,6.0,82,0.00,,,0.00,meteohub,2013-07-13 07:50:00,
2013-07-13 03:55:00,68.4,62.6,30.08,ESE,109,2.0,6.0,82,0.00,,,0.00,meteohub,2013-07-13 07:55:00,
2013-07-13 04:00:00,68.4,61.9,30.07,ESE,103,7.0,7.0,80,0.00,,,0.00,meteohub,2013-07-13 08:00:00,
2013-07-13 04:05:00,68.5,61.7,30.07,ESE,108,6.0,9.0,79,0.00,,,0.00,meteohub,2013-07-13 08:05:00,
2013-07-13 04:10:00,68.5,61.7,30.07,ESE,107,5.0,9.0,79,0.00,,,0.00,meteohub,2013-07-13 08:10:00,
2013-07-13 04:15:00,68.4,61.5,30.08,ESE,111,4.0,7.0,79,0.00,,,0.00,meteohub,2013-07-13 08:15:00,
2013-07-13 04:20:00,68.4,62.2,30.08,ESE,109,5.0,7.0,81,0.00,,,0.00,meteohub,2013-07-13 08:20:00,
2013-07-13 04:25:00,68.2,62.1,30.08,ESE,110,5.0,7.0,81,0.00,,,0.00,meteohub,2013-07-13 08:25:00,
2013-07-13 04:30:00,68.0,61.5,30.08,ESE,115,5.0,7.0,80,0.00,,,0.00,meteohub,2013-07-13 08:30:00,
2013-07-13 04:35:00,67.8,61.3,30.08,ESE,115,6.0,7.0,80,0.00,,,0.00,meteohub,2013-07-13 08:35:00,
2013-07-13 04:41:00,67.8,61.7,30.08,ESE,115,6.0,7.0,81,0.00,,,0.00,meteohub,2013-07-13 08:41:00,
2013-07-13 04:46:00,67.8,61.3,30.08,ESE,105,0.0,9.0,80,0.00,,,0.00,meteohub,2013-07-13 08:46:00,
2013-07-13 04:51:00,67.8,61.7,30.09,ESE,115,0.0,9.0,81,0.00,,,0.00,meteohub,2013-07-13 08:51:00,
2013-07-13 04:56:00,67.6,61.9,30.08,ESE,113,6.0,9.0,82,0.00,,,0.00,meteohub,2013-07-13 08:56:00,
2013-07-13 05:01:00,67.6,61.9,30.09,ESE,111,3.0,6.0,82,0.00,,,0.00,meteohub,2013-07-13 09:01:00,
2013-07-13 05:06:00,67.6,61.9,30.09,ESE,120,0.0,6.0,82,0.00,,,0.00,meteohub,2013-07-13 09:06:00,
2013-07-13 05:11:00,67.5,62.1,30.09,ESE,107,3.0,6.0,83,0.00,,,0.00,meteohub,2013-07-13 09:11:00,
2013-07-13 05:16:00,67.6,61.9,30.10,ESE,103,4.0,6.0,82,0.00,,,0.00,meteohub,2013-07-13 09:16:00,
2013-07-13 05:21:00,67.6,61.9,30.10,ESE,109,2.0,6.0,82,0.00,,,0.00,meteohub,2013-07-13 09:21:00,
2013-07-13 05:26:00,67.5,62.1,30.10,ESE,109,0.0,6.0,83,0.00,,,0.00,meteohub,2013-07-13 09:26:00,
2013-07-13 05:31:00,67.3,61.5,30.10,ESE,119,4.0,5.0,82,0.00,,,0.00,meteohub,2013-07-13 09:31:00,
2013-07-13 05:36:00,67.3,61.9,30.10,ESE,112,3.0,6.0,83,0.00,,,0.00,meteohub,2013-07-13 09:36:00,
2013-07-13 05:41:00,67.3,61.9,30.09,ESE,112,2.0,7.0,83,0.00,,,0.00,meteohub,2013-07-13 09:41:00,
2013-07-13 05:46:00,66.7,61.3,30.09,ESE,112,3.0,7.0,83,0.00,,,0.00,meteohub,2013-07-13 09:46:00,
2013-07-13 05:52:00,66.7,61.7,30.09,ESE,112,4.0,7.0,84,0.00,,,0.00,meteohub,2013-07-13 09:52:00,
2013-07-13 05:57:00,66.6,61.2,30.09,ESE,113,2.0,6.0,83,0.00,,,0.00,meteohub,2013-07-13 09:57:00,
2013-07-13 06:02:00,66.7,61.7,30.10,ESE,113,0.0,6.0,84,0.00,,,0.00,meteohub,2013-07-13 10:02:00,
2013-07-13 06:07:00,66.7,61.7,30.10,ESE,113,3.0,6.0,84,0.00,,,0.00,meteohub,2013-07-13 10:07:00,
2013-07-13 06:12:00,66.7,61.7,30.10,ESE,113,3.0,5.0,84,0.00,,,0.00,meteohub,2013-07-13 10:12:00,
2013-07-13 06:17:00,66.6,61.5,30.10,ESE,113,4.0,5.0,84,0.00,,,0.00,meteohub,2013-07-13 10:17:00,
2013-07-13 06:22:00,66.7,61.7,30.10,ESE,115,4.0,6.0,84,0.00,,,0.00,meteohub,2013-07-13 10:22:00,
2013-07-13 06:27:00,66.7,62.1,30.10,ESE,115,4.0,6.0,85,0.00,,,0.00,meteohub,2013-07-13 10:27:00,
2013-07-13 06:32:00,66.9,62.2,30.10,ESE,111,6.0,6.0,85,0.00,,,0.00,meteohub,2013-07-13 10:32:00,
2013-07-13 06:37:00,66.9,62.2,30.11,ESE,109,6.0,7.0,85,0.00,,,0.00,meteohub,2013-07-13 10:37:00,
2013-07-13 06:42:00,66.9,62.2,30.11,ESE,111,4.0,7.0,85,0.00,,,0.00,meteohub,2013-07-13 10:42:00,
2013-07-13 06:47:00,66.9,62.2,30.11,ESE,110,5.0,7.0,85,0.00,,,0.00,meteohub,2013-07-13 10:47:00,
2013-07-13 06:52:00,66.9,62.2,30.11,ESE,109,2.0,7.0,85,0.00,,,0.00,meteohub,2013-07-13 10:52:00,
2013-07-13 06:57:00,67.3,63.0,30.11,ESE,107,1.0,7.0,86,0.00,,,0.00,meteohub,2013-07-13 10:57:00,
2013-07-13 07:02:00,67.3,63.0,30.11,ESE,107,0.0,7.0,86,0.00,,,0.00,meteohub,2013-07-13 11:02:00,
2013-07-13 07:07:00,67.3,62.6,30.11,ESE,107,0.0,7.0,85,0.00,,,0.00,meteohub,2013-07-13 11:07:00,
2013-07-13 07:12:00,67.3,62.6,30.11,ESE,107,0.0,5.0,85,0.00,,,0.00,meteohub,2013-07-13 11:12:00,
2013-07-13 07:17:00,67.5,62.8,30.12,ESE,107,0.0,3.0,85,0.00,,,0.00,meteohub,2013-07-13 11:17:00,
2013-07-13 07:22:00,67.6,63.3,30.12,ESE,107,0.0,5.0,86,0.00,,,0.00,meteohub,2013-07-13 11:22:00,
2013-07-13 07:27:00,67.6,63.0,30.12,ESE,107,3.0,5.0,85,0.00,,,0.00,meteohub,2013-07-13 11:27:00,
2013-07-13 07:32:00,67.6,63.0,30.12,ESE,107,0.0,5.0,85,0.00,,,0.00,meteohub,2013-07-13 11:32:00,
2013-07-13 07:37:00,67.8,63.5,30.12,ESE,107,1.0,5.0,86,0.00,,,0.00,meteohub,2013-07-13 11:37:00,
2013-07-13 07:42:00,68.0,63.3,30.12,ESE,108,0.0,5.0,85,0.00,,,0.00,meteohub,2013-07-13 11:42:00,
2013-07-13 07:47:00,68.2,63.5,30.13,ESE,108,0.0,3.0,85,0.00,,,0.00,meteohub,2013-07-13 11:47:00,
2013-07-13 07:52:00,68.5,63.9,30.13,ESE,108,0.0,3.0,85,0.00,,,0.00,meteohub,2013-07-13 11:52:00,
2013-07-13 07:57:00,68.9,63.9,30.13,ESE,107,0.0,0.0,84,0.00,,,0.00,meteohub,2013-07-13 11:57:00,
2013-07-13 08:02:00,69.3,64.2,30.13,ESE,107,0.0,0.0,84,0.00,,,0.00,meteohub,2013-07-13 12:02:00,
2013-07-13 08:07:00,69.4,64.0,30.13,ESE,107,2.0,3.0,83,0.00,,,0.00,meteohub,2013-07-13 12:07:00,
2013-07-13 08:12:00,69.6,64.6,30.14,East,101,1.0,3.0,84,0.00,,,0.00,meteohub,2013-07-13 12:12:00,
2013-07-13 08:18:00,70.0,64.6,30.14,ESE,103,0.0,6.0,83,0.00,,,0.00,meteohub,2013-07-13 12:18:00,
2013-07-13 08:23:00,70.2,65.1,30.14,ESE,102,5.0,6.0,84,0.00,,,0.00,meteohub,2013-07-13 12:23:00,
2013-07-13 08:28:00,70.3,65.3,30.14,East,86,7.0,7.0,84,0.00,,,0.00,meteohub,2013-07-13 12:28:00,
2013-07-13 08:33:00,70.5,66.2,30.14,ENE,77,5.0,8.0,86,0.00,,,0.00,meteohub,2013-07-13 12:33:00,
2013-07-13 08:38:00,70.5,65.8,30.14,East,80,7.0,10.0,85,0.00,,,0.00,meteohub,2013-07-13 12:38:00,
2013-07-13 08:43:00,70.5,65.8,30.14,ENE,77,6.0,10.0,85,0.00,,,0.00,meteohub,2013-07-13 12:43:00,
2013-07-13 08:48:00,70.7,66.0,30.14,ENE,74,10.0,10.0,85,0.00,,,0.00,meteohub,2013-07-13 12:48:00,
2013-07-13 08:53:00,70.7,66.4,30.14,ENE,76,10.0,11.0,86,0.00,,,0.00,meteohub,2013-07-13 12:53:00,
2013-07-13 08:58:00,70.5,66.2,30.14,ENE,71,12.0,12.0,86,0.00,,,0.00,meteohub,2013-07-13 12:58:00,
2013-07-13 09:03:00,70.5,66.2,30.14,NE,50,16.0,16.0,86,0.00,,,0.00,meteohub,2013-07-13 13:03:00,
2013-07-13 09:05:00,70.7,66.6,30.14,NE,55,14.0,15.0,87,0.00,,,0.00,meteohub,2013-07-13 13:05:00,
2013-07-13 09:10:00,70.5,66.4,30.14,ENE,65,14.0,19.0,87,0.00,,,0.00,meteohub,2013-07-13 13:10:00,
2013-07-13 09:16:00,70.5,66.2,30.14,ENE,75,13.0,19.0,86,0.00,,,0.00,meteohub,2013-07-13 13:16:00,
2013-07-13 09:21:00,70.5,65.8,30.14,ENE,65,13.0,19.0,85,0.00,,,0.00,meteohub,2013-07-13 13:21:00,
2013-07-13 09:26:00,70.5,66.4,30.14,NE,55,16.0,17.0,87,0.00,,,0.00,meteohub,2013-07-13 13:26:00,
2013-07-13 09:31:00,70.5,65.8,30.14,ENE,72,14.0,17.0,85,0.00,,,0.00,meteohub,2013-07-13 13:31:00,
2013-07-13 09:36:00,70.7,66.0,30.14,ENE,71,15.0,17.0,85,0.00,,,0.00,meteohub,2013-07-13 13:36:00,
2013-07-13 09:41:00,70.7,66.9,30.14,ENE,61,18.0,18.0,88,0.00,,,0.00,meteohub,2013-07-13 13:41:00,
2013-07-13 09:46:00,70.5,66.7,30.14,ENE,78,13.0,18.0,88,0.00,,,0.00,meteohub,2013-07-13 13:46:00,
2013-07-13 09:51:00,70.5,67.1,30.14,ENE,68,15.0,18.0,89,0.00,,,0.00,meteohub,2013-07-13 13:51:00,
2013-07-13 09:56:00,70.5,67.1,30.14,ENE,66,16.0,18.0,89,0.00,,,0.00,meteohub,2013-07-13 13:56:00,
2013-07-13 10:01:00,70.5,67.1,30.14,ENE,73,16.0,17.0,89,0.00,,,0.00,meteohub,2013-07-13 14:01:00,
2013-07-13 10:06:00,70.7,67.6,30.14,ENE,75,13.0,17.0,90,0.00,,,0.00,meteohub,2013-07-13 14:06:00,
2013-07-13 10:11:00,70.7,66.9,30.14,ENE,71,15.0,17.0,88,0.00,,,0.00,meteohub,2013-07-13 14:11:00,
2013-07-13 10:16:00,70.7,66.6,30.14,ENE,72,13.0,17.0,87,0.00,,,0.00,meteohub,2013-07-13 14:16:00,
2013-07-13 10:22:00,70.9,67.1,30.13,ENE,65,13.0,16.0,88,0.00,,,0.00,meteohub,2013-07-13 14:22:00,
2013-07-13 10:27:00,70.9,67.1,30.13,ENE,61,15.0,18.0,88,0.00,,,0.00,meteohub,2013-07-13 14:27:00,
2013-07-13 10:32:00,70.9,67.1,30.13,ENE,66,14.0,18.0,88,0.00,,,0.00,meteohub,2013-07-13 14:32:00,
2013-07-13 10:37:00,70.9,67.1,30.13,ENE,64,14.0,18.0,88,0.00,,,0.00,meteohub,2013-07-13 14:37:00,
2013-07-13 10:42:00,71.1,67.3,30.13,ENE,65,14.0,16.0,88,0.00,,,0.00,meteohub,2013-07-13 14:42:00,
2013-07-13 10:47:00,71.2,67.5,30.13,ENE,61,14.0,15.0,88,0.00,,,0.00,meteohub,2013-07-13 14:47:00,
2013-07-13 10:52:00,71.2,67.8,30.13,ENE,67,15.0,16.0,89,0.00,,,0.00,meteohub,2013-07-13 14:52:00,
2013-07-13 10:57:00,71.1,68.4,30.13,ENE,63,15.0,17.0,91,0.00,,,0.00,meteohub,2013-07-13 14:57:00,
2013-07-13 11:02:00,70.9,68.2,30.13,ENE,67,16.0,18.0,91,0.00,,,0.00,meteohub,2013-07-13 15:02:00,
2013-07-13 11:07:00,70.9,68.2,30.13,ENE,67,15.0,18.0,91,0.00,,,0.00,meteohub,2013-07-13 15:07:00,
2013-07-13 11:12:00,70.7,68.2,30.13,ENE,65,13.0,18.0,92,0.00,,,0.00,meteohub,2013-07-13 15:12:00,
2013-07-13 11:17:00,70.9,68.2,30.13,NE,55,15.0,17.0,91,0.00,,,0.00,meteohub,2013-07-13 15:17:00,
2013-07-13 11:22:00,70.9,68.2,30.14,ENE,67,14.0,17.0,91,0.00,,,0.00,meteohub,2013-07-13 15:22:00,
2013-07-13 11:27:00,71.1,68.4,30.14,ENE,64,15.0,16.0,91,0.00,,,0.00,meteohub,2013-07-13 15:27:00,
2013-07-13 11:32:00,71.1,68.4,30.14,ENE,58,15.0,16.0,91,0.00,,,0.00,meteohub,2013-07-13 15:32:00,
2013-07-13 11:37:00,71.2,68.5,30.14,NE,52,13.0,16.0,91,0.00,,,0.00,meteohub,2013-07-13 15:37:00,
2013-07-13 11:42:00,71.2,68.7,30.14,NE,49,16.0,16.0,92,0.00,,,0.00,meteohub,2013-07-13 15:42:00,
2013-07-13 11:47:00,71.1,68.4,30.14,ENE,59,16.0,17.0,91,0.00,,,0.00,meteohub,2013-07-13 15:47:00,
2013-07-13 11:52:00,71.1,68.0,30.14,NE,55,15.0,17.0,90,0.00,,,0.00,meteohub,2013-07-13 15:52:00,
2013-07-13 11:57:00,71.1,68.0,30.14,ENE,71,16.0,17.0,90,0.00,,,0.00,meteohub,2013-07-13 15:57:00,
2013-07-13 12:02:00,71.2,68.7,30.14,ENE,71,15.0,17.0,92,0.00,,,0.00,meteohub,2013-07-13 16:02:00,
2013-07-13 12:07:00,71.2,68.7,30.14,ENE,66,16.0,17.0,92,0.00,,,0.00,meteohub,2013-07-13 16:07:00,
2013-07-13 12:12:00,71.2,68.7,30.14,ENE,68,14.0,17.0,92,0.00,,,0.00,meteohub,2013-07-13 16:12:00,
2013-07-13 12:17:00,71.2,68.7,30.13,ENE,69,16.0,17.0,92,0.00,,,0.00,meteohub,2013-07-13 16:17:00,
2013-07-13 12:22:00,71.2,68.7,30.14,ENE,69,15.0,17.0,92,0.00,,,0.00,meteohub,2013-07-13 16:22:00,
2013-07-13 12:27:00,71.2,68.7,30.14,ENE,72,14.0,17.0,92,0.00,,,0.00,meteohub,2013-07-13 16:27:00,
2013-07-13 12:32:00,71.2,68.7,30.14,ENE,66,14.0,17.0,92,0.00,,,0.00,meteohub,2013-07-13 16:32:00,
2013-07-13 12:37:00,71.4,68.7,30.13,ENE,72,15.0,17.0,91,0.00,,,0.00,meteohub,2013-07-13 16:37:00,
2013-07-13 12:42:00,71.4,68.7,30.14,ENE,60,15.0,17.0,91,0.00,,,0.00,meteohub,2013-07-13 16:42:00,
2013-07-13 12:47:00,71.6,69.1,30.13,ENE,65,14.0,17.0,92,0.00,,,0.00,meteohub,2013-07-13 16:47:00,
2013-07-13 12:52:00,71.4,68.9,30.14,ENE,67,14.0,16.0,92,0.00,,,0.00,meteohub,2013-07-13 16:52:00,
2013-07-13 12:57:00,71.4,68.7,30.13,ENE,69,14.0,16.0,91,0.00,,,0.00,meteohub,2013-07-13 16:57:00,
2013-07-13 13:02:00,71.8,69.3,30.13,ENE,66,13.0,16.0,92,0.00,,,0.00,meteohub,2013-07-13 17:02:00,
2013-07-13 13:07:00,71.8,69.3,30.13,ENE,74,13.0,16.0,92,0.00,,,0.00,meteohub,2013-07-13 17:07:00,
2013-07-13 13:12:00,71.8,69.1,30.13,ENE,74,16.0,16.0,91,0.00,,,0.00,meteohub,2013-07-13 17:12:00,
2013-07-13 13:17:00,72.0,69.4,30.14,ENE,63,15.0,17.0,92,0.00,,,0.00,meteohub,2013-07-13 17:17:00,
2013-07-13 13:22:00,72.0,69.4,30.13,ENE,69,14.0,17.0,92,0.00,,,0.00,meteohub,2013-07-13 17:22:00,
2013-07-13 13:27:00,72.1,69.4,30.13,ENE,66,14.0,17.0,91,0.00,,,0.00,meteohub,2013-07-13 17:27:00,
2013-07-13 13:32:00,72.1,69.6,30.13,ENE,74,14.0,16.0,92,0.00,,,0.00,meteohub,2013-07-13 17:32:00,
2013-07-13 13:37:00,72.1,69.6,30.13,ENE,68,14.0,16.0,92,0.00,,,0.00,meteohub,2013-07-13 17:37:00,
2013-07-13 13:42:00,72.1,70.0,30.13,ENE,68,14.0,17.0,93,0.00,,,0.00,meteohub,2013-07-13 17:42:00,
2013-07-13 13:47:00,72.1,69.6,30.13,ENE,70,15.0,17.0,92,0.00,,,0.00,meteohub,2013-07-13 17:47:00,
2013-07-13 13:52:00,72.1,69.6,30.14,ENE,76,14.0,18.0,92,0.00,,,0.00,meteohub,2013-07-13 17:52:00,
2013-07-13 13:57:00,72.1,69.6,30.13,ENE,75,15.0,18.0,92,0.00,,,0.00,meteohub,2013-07-13 17:57:00,
2013-07-13 14:02:00,72.0,69.4,30.13,ENE,69,13.0,18.0,92,0.00,,,0.00,meteohub,2013-07-13 18:02:00,
2013-07-13 14:07:00,72.1,70.3,30.13,ENE,67,16.0,18.0,94,0.00,,,0.00,meteohub,2013-07-13 18:07:00,
2013-07-13 14:12:00,72.1,70.3,30.14,ENE,69,18.0,18.0,94,0.00,,,0.00,meteohub,2013-07-13 18:12:00,
2013-07-13 14:13:00,72.1,70.3,30.14,ENE,63,17.0,18.0,94,0.00,,,0.00,meteohub,2013-07-13 18:13:00,
2013-07-13 14:18:00,72.1,70.0,30.13,ENE,69,15.0,19.0,93,0.00,,,0.00,meteohub,2013-07-13 18:18:00,
2013-07-13 14:23:00,72.1,69.1,30.13,ENE,68,16.0,20.0,90,0.00,,,0.00,meteohub,2013-07-13 18:23:00,
2013-07-13 14:28:00,72.3,69.3,30.13,ENE,66,16.0,20.0,90,0.00,,,0.00,meteohub,2013-07-13 18:28:00,
2013-07-13 14:33:00,72.7,69.6,30.14,ENE,71,17.0,18.0,90,0.00,,,0.00,meteohub,2013-07-13 18:33:00,
2013-07-13 14:38:00,72.7,69.6,30.13,ENE,74,17.0,19.0,90,0.00,,,0.00,meteohub,2013-07-13 18:38:00,
2013-07-13 14:43:00,72.7,70.0,30.13,ENE,71,15.0,19.0,91,0.00,,,0.00,meteohub,2013-07-13 18:43:00,
2013-07-13 14:48:00,72.9,69.8,30.13,ENE,70,15.0,19.0,90,0.00,,,0.00,meteohub,2013-07-13 18:48:00,
2013-07-13 14:53:00,73.0,70.0,30.13,ENE,66,16.0,18.0,90,0.00,,,0.00,meteohub,2013-07-13 18:53:00,
2013-07-13 14:58:00,73.0,69.6,30.13,ENE,68,16.0,18.0,89,0.00,,,0.00,meteohub,2013-07-13 18:58:00,
2013-07-13 15:04:00,73.2,69.8,30.13,ENE,74,16.0,18.0,89,0.00,,,0.00,meteohub,2013-07-13 19:04:00,
2013-07-13 15:09:00,73.4,70.0,30.14,ENE,61,15.0,18.0,89,0.00,,,0.00,meteohub,2013-07-13 19:09:00,
2013-07-13 15:14:00,73.6,70.2,30.14,ENE,73,12.0,18.0,89,0.00,,,0.00,meteohub,2013-07-13 19:14:00,
2013-07-13 15:19:00,73.6,70.5,30.14,ENE,78,13.0,17.0,90,0.00,,,0.00,meteohub,2013-07-13 19:19:00,
2013-07-13 15:24:00,73.6,70.5,30.13,ENE,77,15.0,16.0,90,0.00,,,0.00,meteohub,2013-07-13 19:24:00,
2013-07-13 15:29:00,73.6,70.5,30.13,ENE,72,13.0,16.0,90,0.00,,,0.00,meteohub,2013-07-13 19:29:00,
2013-07-13 15:34:00,73.8,70.3,30.13,ENE,67,12.0,15.0,89,0.00,,,0.00,meteohub,2013-07-13 19:34:00,
2013-07-13 15:39:00,73.8,70.3,30.13,ENE,65,13.0,15.0,89,0.00,,,0.00,meteohub,2013-07-13 19:39:00,
2013-07-13 15:44:00,73.9,70.5,30.13,ENE,72,10.0,15.0,89,0.00,,,0.00,meteohub,2013-07-13 19:44:00,
2013-07-13 15:49:00,73.9,70.5,30.13,ENE,69,11.0,15.0,89,0.00,,,0.00,meteohub,2013-07-13 19:49:00,
2013-07-13 15:54:00,73.9,70.5,30.13,ENE,69,13.0,15.0,89,0.00,,,0.00,meteohub,2013-07-13 19:54:00,
2013-07-13 15:59:00,73.9,70.5,30.13,ENE,71,9.0,13.0,89,0.00,,,0.00,meteohub,2013-07-13 19:59:00,
2013-07-13 16:04:00,73.9,70.9,30.13,ENE,67,11.0,13.0,90,0.00,,,0.00,meteohub,2013-07-13 20:04:00,
2013-07-13 16:10:00,73.9,70.5,30.13,ENE,70,12.0,13.0,89,0.00,,,0.00,meteohub,2013-07-13 20:10:00,
2013-07-13 16:15:00,73.9,70.9,30.13,ENE,65,12.0,13.0,90,0.00,,,0.00,meteohub,2013-07-13 20:15:00,
2013-07-13 16:20:00,73.9,70.9,30.14,ENE,67,12.0,13.0,90,0.00,,,0.00,meteohub,2013-07-13 20:20:00,
2013-07-13 16:25:00,73.9,70.9,30.14,ENE,69,11.0,13.0,90,0.00,,,0.00,meteohub,2013-07-13 20:25:00,
2013-07-13 16:30:00,73.9,70.9,30.13,East,80,9.0,13.0,90,0.00,,,0.00,meteohub,2013-07-13 20:30:00,
2013-07-13 16:35:00,73.8,70.7,30.14,ENE,72,12.0,13.0,90,0.00,,,0.00,meteohub,2013-07-13 20:35:00,
2013-07-13 16:40:00,73.8,71.2,30.13,ENE,72,10.0,13.0,92,0.00,,,0.00,meteohub,2013-07-13 20:40:00,
2013-07-13 16:45:00,73.8,71.2,30.13,ENE,67,12.0,13.0,92,0.00,,,0.00,meteohub,2013-07-13 20:45:00,
2013-07-13 16:50:00,73.8,71.2,30.13,ENE,63,11.0,12.0,92,0.00,,,0.00,meteohub,2013-07-13 20:50:00,
2013-07-13 16:56:00,73.8,71.6,30.13,ENE,64,9.0,13.0,93,0.00,,,0.00,meteohub,2013-07-13 20:56:00,
2013-07-13 17:01:00,73.8,71.2,30.13,ENE,60,9.0,13.0,92,0.00,,,0.00,meteohub,2013-07-13 21:01:00,
2013-07-13 17:06:00,73.8,71.6,30.13,ENE,67,9.0,13.0,93,0.00,,,0.00,meteohub,2013-07-13 21:06:00,
2013-07-13 17:11:00,73.8,71.6,30.13,ENE,69,11.0,11.0,93,0.00,,,0.00,meteohub,2013-07-13 21:11:00,
2013-07-13 17:16:00,73.8,71.6,30.13,ENE,69,10.0,11.0,93,0.00,,,0.00,meteohub,2013-07-13 21:16:00,
2013-07-13 17:21:00,73.8,71.2,30.12,ENE,62,11.0,11.0,92,0.00,,,0.00,meteohub,2013-07-13 21:21:00,
2013-07-13 17:26:00,73.9,71.8,30.12,ENE,63,9.0,12.0,93,0.00,,,0.00,meteohub,2013-07-13 21:26:00,
2013-07-13 17:31:00,73.9,71.8,30.13,ENE,65,8.0,12.0,93,0.00,,,0.00,meteohub,2013-07-13 21:31:00,
2013-07-13 17:36:00,74.1,72.0,30.13,ENE,65,7.0,12.0,93,0.00,,,0.00,meteohub,2013-07-13 21:36:00,
2013-07-13 17:41:00,74.3,71.8,30.13,ENE,65,10.0,10.0,92,0.00,,,0.00,meteohub,2013-07-13 21:41:00,
2013-07-13 17:46:00,74.5,72.0,30.13,ENE,67,11.0,11.0,92,0.00,,,0.00,meteohub,2013-07-13 21:46:00,
2013-07-13 17:51:00,74.3,71.8,30.13,ENE,67,11.0,12.0,92,0.00,,,0.00,meteohub,2013-07-13 21:51:00,
2013-07-13 17:56:00,74.3,72.1,30.13,ENE,70,10.0,12.0,93,0.00,,,0.00,meteohub,2013-07-13 21:56:00,
2013-07-13 18:01:00,74.3,72.1,30.13,ENE,69,12.0,12.0,93,0.00,,,0.00,meteohub,2013-07-13 22:01:00,
2013-07-13 18:06:00,74.1,72.0,30.12,ENE,73,11.0,12.0,93,0.00,,,0.00,meteohub,2013-07-13 22:06:00,
2013-07-13 18:11:00,74.1,72.0,30.12,ENE,69,11.0,12.0,93,0.00,,,0.00,meteohub,2013-07-13 22:11:00,
2013-07-13 18:17:00,74.1,72.0,30.13,ENE,71,11.0,13.0,93,0.00,,,0.00,meteohub,2013-07-13 22:17:00,
2013-07-13 18:22:00,74.3,72.5,30.12,East,80,9.0,13.0,94,0.00,,,0.00,meteohub,2013-07-13 22:22:00,
2013-07-13 18:27:00,74.3,72.1,30.12,ENE,77,11.0,13.0,93,0.00,,,0.00,meteohub,2013-07-13 22:27:00,
2013-07-13 18:32:00,74.5,72.3,30.12,ENE,73,10.0,12.0,93,0.00,,,0.00,meteohub,2013-07-13 22:32:00,
2013-07-13 18:37:00,74.5,72.3,30.12,ENE,69,10.0,12.0,93,0.00,,,0.00,meteohub,2013-07-13 22:37:00,
2013-07-13 18:42:00,74.5,72.3,30.12,ENE,64,10.0,12.0,93,0.00,,,0.00,meteohub,2013-07-13 22:42:00,
2013-07-13 18:47:00,74.7,72.5,30.12,ENE,64,10.0,11.0,93,0.00,,,0.00,meteohub,2013-07-13 22:47:00,
2013-07-13 18:52:00,74.7,72.9,30.12,ENE,69,10.0,11.0,94,0.00,,,0.00,meteohub,2013-07-13 22:52:00,
2013-07-13 18:57:00,74.7,72.5,30.12,ENE,66,10.0,11.0,93,0.00,,,0.00,meteohub,2013-07-13 22:57:00,
2013-07-13 19:02:00,74.7,72.9,30.12,ENE,70,9.0,12.0,94,0.00,,,0.00,meteohub,2013-07-13 23:02:00,
2013-07-13 19:07:00,74.8,73.0,30.12,ENE,71,9.0,12.0,94,0.00,,,0.00,meteohub,2013-07-13 23:07:00,
2013-07-13 19:12:00,74.8,73.0,30.13,ENE,71,10.0,11.0,94,0.00,,,0.00,meteohub,2013-07-13 23:12:00,
2013-07-13 19:17:00,74.8,73.0,30.12,ENE,69,10.0,11.0,94,0.00,,,0.00,meteohub,2013-07-13 23:17:00,
2013-07-13 19:22:00,74.8,73.0,30.13,ENE,71,7.0,11.0,94,0.00,,,0.00,meteohub,2013-07-13 23:22:00,
2013-07-13 19:27:00,74.8,73.0,30.13,ENE,71,7.0,11.0,94,0.00,,,0.00,meteohub,2013-07-13 23:27:00,
2013-07-13 19:32:00,74.8,73.0,30.13,ENE,67,9.0,10.0,94,0.00,,,0.00,meteohub,2013-07-13 23:32:00,
2013-07-13 19:37:00,74.8,73.0,30.13,ENE,67,11.0,11.0,94,0.00,,,0.00,meteohub,2013-07-13 23:37:00,
2013-07-13 19:42:00,74.7,72.9,30.13,ENE,72,10.0,11.0,94,0.00,,,0.00,meteohub,2013-07-13 23:42:00,
2013-07-13 19:47:00,74.8,73.2,30.13,ENE,76,7.0,11.0,95,0.00,,,0.00,meteohub,2013-07-13 23:47:00,
2013-07-13 19:52:00,74.8,73.0,30.13,ENE,78,9.0,11.0,94,0.00,,,0.00,meteohub,2013-07-13 23:52:00,
2013-07-13 19:57:00,74.8,73.0,30.13,ENE,77,6.0,11.0,94,0.00,,,0.00,meteohub,2013-07-13 23:57:00,
2013-07-13 20:02:00,74.8,73.0,30.13,ENE,78,9.0,10.0,94,0.00,,,0.00,meteohub,2013-07-14 00:02:00,
2013-07-13 20:07:00,74.8,73.0,30.13,ENE,78,9.0,11.0,94,0.00,,,0.00,meteohub,2013-07-14 00:07:00,
2013-07-13 20:12:00,74.8,73.0,30.13,ENE,78,10.0,11.0,94,0.00,,,0.00,meteohub,2013-07-14 00:12:00,
2013-07-13 20:17:00,74.8,73.0,30.13,ENE,77,10.0,11.0,94,0.00,,,0.00,meteohub,2013-07-14 00:17:00,
2013-07-13 20:22:00,74.8,73.0,30.13,ENE,78,9.0,11.0,94,0.00,,,0.00,meteohub,2013-07-14 00:22:00,
2013-07-13 20:27:00,74.8,73.2,30.13,ENE,76,9.0,11.0,95,0.00,,,0.00,meteohub,2013-07-14 00:27:00,
2013-07-13 20:32:00,74.8,73.2,30.13,ENE,74,9.0,11.0,95,0.00,,,0.00,meteohub,2013-07-14 00:32:00,
2013-07-13 20:37:00,74.8,73.2,30.13,ENE,74,7.0,10.0,95,0.00,,,0.00,meteohub,2013-07-14 00:37:00,
2013-07-13 20:42:00,75.0,73.8,30.13,ENE,74,6.0,10.0,96,0.00,,,0.00,meteohub,2013-07-14 00:42:00,
2013-07-13 20:47:00,75.0,73.8,30.13,ENE,74,9.0,10.0,96,0.00,,,0.00,meteohub,2013-07-14 00:47:00,
2013-07-13 20:52:00,75.0,73.8,30.13,ENE,74,6.0,9.0,96,0.00,,,0.00,meteohub,2013-07-14 00:52:00,
2013-07-13 20:57:00,75.0,73.8,30.14,ENE,74,5.0,9.0,96,0.00,,,0.00,meteohub,2013-07-14 00:57:00,
2013-07-13 21:02:00,75.4,74.1,30.14,ENE,74,5.0,9.0,96,0.00,,,0.00,meteohub,2013-07-14 01:02:00,
2013-07-13 21:07:00,75.6,74.3,30.14,ENE,76,7.0,8.0,96,0.00,,,0.00,meteohub,2013-07-14 01:07:00,
2013-07-13 21:12:00,75.7,74.1,30.14,ENE,76,2.0,7.0,95,0.00,,,0.00,meteohub,2013-07-14 01:12:00,
2013-07-13 21:17:00,75.7,73.9,30.14,ENE,76,3.0,7.0,94,0.00,,,0.00,meteohub,2013-07-14 01:17:00,
2013-07-13 21:22:00,75.7,73.9,30.14,ENE,76,10.0,10.0,94,0.00,,,0.00,meteohub,2013-07-14 01:22:00,
2013-07-13 21:27:00,75.6,73.9,30.14,East,90,6.0,11.0,95,0.00,,,0.00,meteohub,2013-07-14 01:27:00,
2013-07-13 21:32:00,75.7,73.9,30.14,North,0,0.0,11.0,94,0.00,,,0.00,meteohub,2013-07-14 01:32:00,
2013-07-13 21:37:00,75.9,74.1,30.14,North,0,0.0,11.0,94,0.00,,,0.00,meteohub,2013-07-14 01:37:00,
2013-07-13 21:42:00,76.3,73.8,30.14,East,96,0.0,7.0,92,0.00,,,0.00,meteohub,2013-07-14 01:42:00,
2013-07-13 21:47:00,75.9,74.1,30.14,North,0,0.0,4.0,94,0.00,,,0.00,meteohub,2013-07-14 01:47:00,
2013-07-13 21:52:00,75.7,74.1,30.14,North,0,2.0,6.0,95,0.00,,,0.00,meteohub,2013-07-14 01:52:00,
2013-07-13 21:57:00,75.7,74.1,30.14,North,0,3.0,6.0,95,0.00,,,0.00,meteohub,2013-07-14 01:57:00,
2013-07-13 22:02:00,75.7,73.9,30.15,North,0,5.0,5.0,94,0.00,,,0.00,meteohub,2013-07-14 02:02:00,
2013-07-13 22:07:00,75.9,74.3,30.15,North,0,0.0,5.0,95,0.00,,,0.00,meteohub,2013-07-14 02:07:00,
2013-07-13 22:12:00,75.7,74.1,30.15,North,0,0.0,5.0,95,0.00,,,0.00,meteohub,2013-07-14 02:12:00,
2013-07-13 22:17:00,75.6,74.3,30.15,East,87,4.0,5.0,96,0.00,,,0.00,meteohub,2013-07-14 02:17:00,
2013-07-13 22:22:00,75.4,74.5,30.15,ENE,64,9.0,9.0,97,0.00,,,0.00,meteohub,2013-07-14 02:22:00,
2013-07-13 22:27:00,74.8,73.9,30.16,ENE,71,10.0,10.0,97,0.00,,,0.00,meteohub,2013-07-14 02:27:00,
2013-07-13 22:33:00,74.8,73.9,30.16,East,91,7.0,11.0,97,0.00,,,0.00,meteohub,2013-07-14 02:33:00,
2013-07-13 22:38:00,74.8,73.6,30.16,East,97,5.0,11.0,96,0.00,,,0.00,meteohub,2013-07-14 02:38:00,
2013-07-13 22:43:00,74.8,73.6,30.16,East,100,4.0,11.0,96,0.00,,,0.00,meteohub,2013-07-14 02:43:00,
2013-07-13 22:48:00,74.8,73.2,30.17,East,100,0.0,10.0,95,0.00,,,0.00,meteohub,2013-07-14 02:48:00,
2013-07-13 22:53:00,74.8,73.2,30.17,East,100,0.0,7.0,95,0.00,,,0.00,meteohub,2013-07-14 02:53:00,
2013-07-13 22:58:00,75.0,73.2,30.17,East,100,0.0,5.0,94,0.00,,,0.00,meteohub,2013-07-14 02:58:00,
2013-07-13 23:03:00,75.0,72.9,30.17,East,100,0.0,5.0,93,0.00,,,0.00,meteohub,2013-07-14 03:03:00,
2013-07-13 23:08:00,75.0,72.5,30.17,East,100,0.0,1.0,92,0.00,,,0.00,meteohub,2013-07-14 03:08:00,
2013-07-13 23:13:00,75.0,72.5,30.17,East,101,0.0,0.0,92,0.00,,,0.00,meteohub,2013-07-14 03:13:00,
2013-07-13 23:18:00,75.0,72.1,30.17,East,101,0.0,0.0,91,0.00,,,0.00,meteohub,2013-07-14 03:18:00,
2013-07-13 23:23:00,75.0,72.5,30.17,East,101,0.0,0.0,92,0.00,,,0.00,meteohub,2013-07-14 03:23:00,
2013-07-13 23:28:00,74.5,72.3,30.17,East,101,0.0,0.0,93,0.00,,,0.00,meteohub,2013-07-14 03:28:00,
2013-07-13 23:33:00,74.1,72.0,30.17,East,101,0.0,1.0,93,0.00,,,0.00,meteohub,2013-07-14 03:33:00,
2013-07-13 23:38:00,73.9,71.8,30.17,East,101,0.0,1.0,93,0.00,,,0.00,meteohub,2013-07-14 03:38:00,
2013-07-13 23:43:00,73.9,71.4,30.17,ESE,102,0.0,0.0,92,0.00,,,0.00,meteohub,2013-07-14 03:43:00,
2013-07-13 23:49:00,73.9,71.4,30.17,ESE,103,0.0,1.0,92,0.00,,,0.00,meteohub,2013-07-14 03:49:00,
2013-07-13 23:54:00,73.9,71.4,30.17,ESE,108,3.0,3.0,92,0.00,,,0.00,meteohub,2013-07-14 03:54:00,
2013-07-13 23:59:00,74.3,71.4,30.17,ESE,115,4.0,5.0,91,0.00,,,0.00,meteohub,2013-07-14 03:59:00,